Regional Weather Roundup
Issued by NWS New Orleans/Baton Rouge, LA

Home | Current Version | Previous Version | Text Only | Print | Product List | Glossary On
Versions: 1 2 3 4 5 6 7 8 9 10 11 12 13 14 15 16 17 18 19 20 21 22 23 24 25 26 27 28 29 30 31 32 33 34 35 36 37 38 39 40 41 42 43 44 45 46 47 48 49 50
000
ASUS44 KLIX 140510
RWRLIX
NEW ORLEANS REGIONAL WEATHER ROUNDUP
NATIONAL WEATHER SERVICE NEW ORLEANS LA
1200 AM CDT MON JUL 14 2014

NOTE: "FAIR" INDICATES FEW OR NO CLOUDS BELOW 12,000 FEET WITH NO
      SIGNIFICANT WEATHER AND/OR OBSTRUCTIONS TO VISIBILITY.
      SKY/WX - SKY CONDITION AND SIGNIFICANT WEATHER.
      TMP - AIR TEMPERATURE.     DP    - DEWPOINT TEMPERATURE.
      RH  - RELATIVE HUMIDITY.   PRES  - PRESSURE.
      HI  - HEAT INDEX.          WCI   - WIND CHILL INDEX.

*  THESE STATIONS ARE NOT NWS OR FAA STATIONS AND ARE NOT UNDER
   NWS QUALITY CONTROL.

LAZ038-040-048-061>063-065>067-069-140600-
SOUTHEAST LOUISIANA

CITY           SKY/WX    TMP DP  RH WIND       PRES   REMARKS
N.O. AUDUBON   NOT AVBL
N.O. INTL ARPT PTCLDY    79  72  79 CALM      30.03F
N.O. LAKEFRONT PTCLDY    82  74  76 S7        30.04F
N.O. DOWNTOWN* CLOUDY    82  72  69 S3        30.05F
SLIDELL        CLEAR     74  71  91 CALM      30.04F
BATON ROUGE    CLEAR     76  72  87 CALM      30.04S
BOOTHVILLE     CLOUDY    82  74  76 S8        30.06F
BELLE CHASSE     N/A     78  73  84 CALM      30.04F
BOGALUSA*        N/A     74  70  89 CALM      30.06F
GALLIANO*      NOT AVBL
NEW ROADS*       N/A     74  73  97 CALM      30.03F
GONZALES*        N/A     74  74 100 CALM      30.03S
HAMMOND*       CLEAR     75  70  83 CALM      30.05F
HOUMA*         PTCLDY    75  71  89 CALM      30.04S
PORT FOURCHON* CLOUDY    79  75  89 W6        30.07R

$$

MSZ070-080>082-140600-
SOUTHERN MISSISSIPPI

CITY           SKY/WX    TMP DP  RH WIND       PRES   REMARKS
MCCOMB         CLEAR     73  70  90 CALM      30.05F
GULFPORT       CLEAR     83  73  72 S3        30.04F
BILOXI         CLEAR     82  73  72 S6        30.05F
PASCAGOULA     CLEAR     74  73  97 CALM      30.06F

$$

COASTAL OBSERVATIONS
LAKE AND NEARSHORE STATIONS

STATION/POSITION TIME  TEMP    WIND        PRES    WAVE
                       AIR SEA DIR/SP/G            HT/PER
                 (UTC) (F)     (DEG/KT/KT) (MB)    (FT/S)
PASCAGOULA       0500   83     190/  6/  8 1017.4
WAVELAND YACHT   0500   82     210/  5/  7 1016.9
GRAND ISLE       0500   78 89  150/  8/ 11 1018.5
SOUTHWEST PASS   0500   83 84  180/ 11/ 14 1018.1
NEW CANAL        0500   82 85  220/  3/  4 1017.6
SHELL BEACH      0500   81 83  150/  5/  5 1017.1

OFFSHORE STATIONS

STATION/POSITION TIME  TEMP    WIND        PRES    WAVE
                       AIR SEA DIR/SP/G            HT/PER
                 (UTC) (F)     (DEG/KT/KT) (MB)    (FT/S)
64 S DAUPHIN ISL 0440   81 88  170/ 14/ 17 1018.4

$$



USA.gov is the U.S. government's official web portal to all federal, state and local government web resources and services.